POPACS 3

导读

POPACS 3是美国于2013年9月29日08:00发射的一颗人造卫星,作为美国航天发射任务的组成部分,承担着空间技术相关试验与应用任务。该卫星进入预定轨道后,服务于美国空间科学研究或航天技术验证方向,延续了美国在航天领域持续推进卫星部署、探索太空利用的发展脉络,是美国2013年航天发射活动的重要节点之一。

Basic Information
目录编号:
39270
目录名称:
POPACS 3
国际标识:
2013-055F
轨道中心:
EARTH
卫星名称:
POPACS 3
卫星全名:
--
卫星状态:
在轨 (已飞行4671 天)
发射日期:
2013-09-29 UTC
国别 :
美国 (US)
星等 :
--
Orbit Information
数据来源 国际轨道数据
星历时间: 2026-07-13T18:21:39+0800
20小时前
查看轨道信息
半长轴: 7082.211km
偏心率: 0.0549008
轨道倾角: 80.999°
近地点辐角 350.052°
升交点赤经 200.719°
平近点角 9.014°
近地点: 315.254km
远地点: 1092.894km
周期: 98.858分钟
每日圈数: 14.566308
Detailed Information
使用方式:
暂无
2D Orbit Map
3D Orbit Map
Orbit Altitude Analysis Chart
Orbit Inclination Analysis Chart
Orbit Comprehensive Analysis Chart
View Comprehensive Chart